Tracking 19847 objects as of 16-Sep-2019
HD Live streaming from Space Station
objects crossing your sky now

SL-12 R/B(2)

Track SL-12 R/B(2) now!


NORAD ID: 17875
Int'l Code: 1984-090F
Perigee: 35,451.7 km
Apogee: 35,583.2 km
Inclination: 12.5 °
Period: 1,422.0 minutes
Semi major axis: 41888 km
RCS: 2.018 m2 (large)
Launch date: August 24, 1984
Source: Commonwealth of Independent States (former USSR) (CIS)
Launch site: TYURATAM MISSILE AND SPACE COMPLEX (TTMTR)

Note: This is a ROCKET BODY
aabbcc
Your satellite tracking list
Your tracking list is empty




NASA's NSSDC Master Catalog

Two Line Element Set (TLE):
1 17875U 84090F   19258.63414806 -.00000333 +00000-0 +00000-0 0  9996
2 17875 012.4878 328.7201 0015697 093.9951 258.3735 01.01265617131880
Source of the keplerian elements: AFSPC